Terug naar catalogus

OPS 3151 DEB

ActiefMEO
NORAD 9856·DEBRIS·🇺🇸 United States

Gelanceerd Feb 6, 1977 vanaf Cape Canaveral Space Force Station

Loading…

Volgende Passages (komende 24 uur)

TLE

VersSource: Mike McCants

Epoch: Sep 15, 2026, 03:43 UTC

1 09856U 77007D   26258.15533595  .00000000  00000-0  00000-0 0    01
2 09856   2.6958 256.8196 0235439 151.3288 209.9987  1.00594901 45261

Volg OPS 3151 DEB in realtime met AllMySat

Download on the App Store